Location: Härggis
(46.9540°N, 8.4897°E)
Time: 22:29:30
(UTC+00:00)

SL-16 R/B - Pass Details

Date: 06 October 2022
Orbit: 985 x 1007 km, 99.6° (Epoch: 05 December)

Event Time Altitude Azimuth Distance (km) Brightness Sun altitude
Exits shadow 00:37:22 20° 5° (N) 2,117 4.6 -44.4°
Drops below altitude 10° 00:39:20 10° 356° (N) 2,780 5.3 -44.3°
Sets 00:41:57 0° 350° (N) 3,737 6.1 -44.0°
